TimeCDT,TemperatureF,Dew PointF,Humidity,Sea Level PressureIn,VisibilityMPH,Wind Direction,Wind SpeedMPH,Gust SpeedMPH,PrecipitationIn,Events,Conditions,WindDirDegrees,DateUTC
12:53 AM,41.0,34.0,76,30.21,10.0,North,10.4,-,N/A,,Clear,350,2012-10-27 05:53:00
1:53 AM,41.0,34.0,76,30.20,10.0,North,10.4,-,N/A,,Clear,360,2012-10-27 06:53:00
2:53 AM,39.9,33.1,77,30.19,10.0,North,10.4,-,N/A,,Clear,350,2012-10-27 07:53:00
3:53 AM,39.9,32.0,73,30.18,10.0,North,11.5,-,N/A,,Clear,360,2012-10-27 08:53:00
4:53 AM,39.0,32.0,76,30.18,10.0,North,11.5,-,N/A,,Clear,360,2012-10-27 09:53:00
5:53 AM,37.9,32.0,79,30.18,10.0,NNE,9.2,-,N/A,,Clear,20,2012-10-27 10:53:00
6:53 AM,37.0,32.0,82,30.19,10.0,North,9.2,-,N/A,,Clear,10,2012-10-27 11:53:00
7:53 AM,37.9,33.1,83,30.20,10.0,North,10.4,-,N/A,,Clear,10,2012-10-27 12:53:00
8:53 AM,41.0,33.1,73,30.21,10.0,North,15.0,-,N/A,,Clear,10,2012-10-27 13:53:00
9:53 AM,44.6,33.8,66,30.20,10.0,North,16.1,-,N/A,,Clear,10,2012-10-27 14:53:00
10:53 AM,46.9,35.1,63,30.20,10.0,North,17.3,-,N/A,,Clear,360,2012-10-27 15:53:00
11:53 AM,50.0,35.1,57,30.19,10.0,North,15.0,-,N/A,,Clear,10,2012-10-27 16:53:00
12:53 PM,53.1,36.0,52,30.16,10.0,North,15.0,20.7,N/A,,Clear,350,2012-10-27 17:53:00
1:53 PM,54.0,33.1,45,30.13,10.0,NE,16.1,24.2,N/A,,Clear,40,2012-10-27 18:53:00
2:53 PM,55.0,32.0,42,30.11,10.0,North,17.3,24.2,N/A,,Clear,10,2012-10-27 19:53:00
3:53 PM,55.0,30.9,40,30.11,10.0,North,18.4,23.0,N/A,,Clear,10,2012-10-27 20:53:00
4:53 PM,53.1,30.0,41,30.12,10.0,NNE,19.6,25.3,N/A,,Clear,20,2012-10-27 21:53:00
5:53 PM,50.0,32.0,50,30.13,10.0,NNE,9.2,-,N/A,,Clear,20,2012-10-27 22:53:00
6:53 PM,46.0,34.0,63,30.15,10.0,NNE,8.1,-,N/A,,Clear,20,2012-10-27 23:53:00
7:53 PM,46.0,34.0,63,30.15,10.0,North,9.2,-,N/A,,Clear,10,2012-10-28 00:53:00
8:53 PM,45.0,34.0,65,30.15,10.0,North,9.2,-,N/A,,Clear,10,2012-10-28 01:53:00
9:53 PM,44.1,34.0,68,30.15,10.0,North,9.2,-,N/A,,Clear,10,2012-10-28 02:53:00
10:53 PM,42.8,33.8,70,30.14,10.0,North,11.5,-,N/A,,Clear,10,2012-10-28 03:53:00
11:53 PM,42.1,34.0,73,30.14,10.0,North,12.7,-,N/A,,Clear,360,2012-10-28 04:53:00